When you browse on this site, cookies collect data to enhance your experience and personalize the content and advertising you see.
Visit our Privacy Policy to learn more. By continuing to use the site, you agree to this use of cookies and data.
  • en France
  • Liste des pays
  • À 7 jours
  • Température de l'eau
  • Carte météo
  • Widgets météo
  • user-avatar
    Se connecter

    Météo par heure à Cairo

    Ce jour, 22 Novembre, Vendredi

    Heure Température Précipitation Vent Pression Humidité
    00:00 +18°C° 0 mm 2 m/s 757 mmHg 23%
    01:00 +18°C° 0 mm 2 m/s 757 mmHg 26%
    02:00 +19°C° 0 mm 1 m/s 757 mmHg 27%
    03:00 +18°C° 0 mm 1 m/s 757 mmHg 28%
    04:00 +18°C° 0 mm 1 m/s 757 mmHg 29%
    05:00 +18°C° 0 mm 1 m/s 757 mmHg 30%
    06:00 +19°C° 0 mm 1 m/s 757 mmHg 30%
    07:00 +19°C° 0 mm 1 m/s 757 mmHg 29%
    08:00 +20°C° 0 mm 1 m/s 758 mmHg 30%
    09:00 +21°C° 0 mm 1 m/s 758 mmHg 29%
    10:00 +23°C° 0 mm 2 m/s 758 mmHg 27%
    11:00 +24°C° 0 mm 2 m/s 758 mmHg 26%
    12:00 +25°C° 0 mm 2 m/s 758 mmHg 24%
    13:00 +26°C° 0 mm 3 m/s 757 mmHg 23%
    14:00 +26°C° 0 mm 3 m/s 757 mmHg 25%
    15:00 +26°C° 0 mm 3 m/s 757 mmHg 27%
    16:00 +25°C° 0 mm 3 m/s 757 mmHg 30%
    17:00 +24°C° 0 mm 3 m/s 758 mmHg 32%
    18:00 +22°C° 0 mm 4 m/s 758 mmHg 39%
    19:00 +21°C° 0 mm 4 m/s 758 mmHg 46%
    20:00 +20°C° 0 mm 4 m/s 759 mmHg 53%
    21:00 +19°C° 0 mm 4 m/s 759 mmHg 56%
    22:00 +19°C° 0 mm 3 m/s 759 mmHg 59%
    23:00 +18°C° 0 mm 2 m/s 760 mmHg 61%

    Demain, 23 Novembre, Samedi

    Heure Température Précipitation Vent Pression Humidité
    00:00 +18°C° 0 mm 2 m/s 759 mmHg 63%
    01:00 +17°C° 0 mm 2 m/s 759 mmHg 65%
    02:00 +18°C° 0 mm 1 m/s 759 mmHg 66%
    03:00 +17°C° 0 mm 2 m/s 759 mmHg 67%
    04:00 +17°C° 0 mm 2 m/s 759 mmHg 69%
    05:00 +16°C° 0 mm 2 m/s 759 mmHg 70%
    06:00 +17°C° 0 mm 2 m/s 759 mmHg 67%
    07:00 +19°C° 0 mm 1 m/s 759 mmHg 65%
    08:00 +19°C° 0 mm 1 m/s 759 mmHg 63%
    09:00 +21°C° 0 mm 1 m/s 760 mmHg 58%
    10:00 +21°C° 0 mm 2 m/s 760 mmHg 53%
    11:00 +23°C° 0 mm 2 m/s 760 mmHg 48%
    12:00 +24°C° 0 mm 2 m/s 759 mmHg 45%
    13:00 +25°C° 0 mm 2 m/s 758 mmHg 42%
    14:00 +25°C° 0 mm 2 m/s 758 mmHg 39%
    15:00 +25°C° 0 mm 2 m/s 758 mmHg 41%
    16:00 +24°C° 0 mm 2 m/s 758 mmHg 43%
    17:00 +23°C° 0 mm 2 m/s 758 mmHg 44%
    18:00 +23°C° 0 mm 2 m/s 758 mmHg 48%
    19:00 +21°C° 0 mm 2 m/s 759 mmHg 51%
    20:00 +20°C° 0 mm 3 m/s 759 mmHg 54%
    21:00 +19°C° 0 mm 3 m/s 759 mmHg 56%
    22:00 +19°C° 0 mm 3 m/s 759 mmHg 59%
    23:00 +19°C° 0 mm 3 m/s 759 mmHg 61%

    Après-demain, 24 Novembre, Dimanche

    Heure Température Précipitation Vent Pression Humidité
    00:00 +18°C° 0 mm 3 m/s 759 mmHg 62%
    01:00 +18°C° 0 mm 2 m/s 759 mmHg 64%
    02:00 +17°C° 0 mm 2 m/s 759 mmHg 65%
    03:00 +17°C° 0 mm 2 m/s 758 mmHg 67%
    04:00 +17°C° 0 mm 2 m/s 758 mmHg 68%
    05:00 +16°C° 0 mm 2 m/s 758 mmHg 70%
    06:00 +17°C° 0 mm 2 m/s 759 mmHg 67%
    07:00 +18°C° 0 mm 2 m/s 759 mmHg 64%
    08:00 +19°C° 0 mm 2 m/s 759 mmHg 61%
    09:00 +20°C° 0 mm 2 m/s 759 mmHg 56%
    10:00 +21°C° 0 mm 2 m/s 759 mmHg 51%
    11:00 +24°C° 0 mm 3 m/s 759 mmHg 46%
    12:00 +24°C° 0 mm 3 m/s 758 mmHg 43%
    13:00 +25°C° 0 mm 3 m/s 758 mmHg 40%
    14:00 +26°C° 0 mm 4 m/s 757 mmHg 37%
    15:00 +25°C° 0 mm 3 m/s 757 mmHg 39%
    16:00 +24°C° 0 mm 3 m/s 757 mmHg 41%
    17:00 +22°C° 0 mm 3 m/s 757 mmHg 44%
    18:00 +22°C° 0 mm 4 m/s 757 mmHg 47%
    19:00 +21°C° 0 mm 4 m/s 758 mmHg 50%
    20:00 +20°C° 0 mm 4 m/s 758 mmHg 54%
    21:00 +20°C° 0 mm 4 m/s 757 mmHg 56%
    22:00 +19°C° 0 mm 4 m/s 757 mmHg 58%
    23:00 +19°C° 0 mm 4 m/s 757 mmHg 61%

    25 Novembre, Lundi

    Heure Température Précipitation Vent Pression Humidité
    00:00 +18°C° 0 mm 3 m/s 757 mmHg 60%
    01:00 +18°C° 0 mm 3 m/s 756 mmHg 60%
    02:00 +18°C° 0 mm 3 m/s 756 mmHg 60%
    03:00 +18°C° 0 mm 3 m/s 756 mmHg 56%
    04:00 +18°C° 0 mm 2 m/s 756 mmHg 53%
    05:00 +18°C° 0 mm 2 m/s 755 mmHg 50%
    06:00 +18°C° 0 mm 2 m/s 756 mmHg 45%
    07:00 +19°C° 0 mm 3 m/s 756 mmHg 41%
    08:00 +20°C° 0 mm 4 m/s 756 mmHg 37%
    09:00 +22°C° 0 mm 5 m/s 756 mmHg 31%
    10:00 +25°C° 0 mm 5 m/s 755 mmHg 26%
    11:00 +28°C° 0 mm 6 m/s 755 mmHg 21%
    12:00 +29°C° 0 mm 7 m/s 755 mmHg 19%
    13:00 +30°C° 0 mm 7 m/s 754 mmHg 18%
    14:00 +32°C° 0 mm 7 m/s 753 mmHg 17%
    15:00 +30°C° 0 mm 5 m/s 753 mmHg 18%
    16:00 +28°C° 0 mm 4 m/s 753 mmHg 20%
    17:00 +27°C° 0 mm 3 m/s 753 mmHg 21%
    18:00 +26°C° 0 mm 3 m/s 753 mmHg 22%
    19:00 +26°C° 0 mm 3 m/s 753 mmHg 23%
    20:00 +25°C° 0 mm 3 m/s 754 mmHg 23%
    21:00 +25°C° 0 mm 4 m/s 754 mmHg 24%
    22:00 +25°C° 0 mm 4 m/s 753 mmHg 24%
    23:00 +23°C° 0 mm 4 m/s 753 mmHg 25%

    26 Novembre, Mardi

    Heure Température Précipitation Vent Pression Humidité
    00:00 +23°C° 0 mm 5 m/s 753 mmHg 25%
    01:00 +22°C° 0 mm 5 m/s 753 mmHg 26%
    02:00 +22°C° 0 mm 6 m/s 753 mmHg 26%
    03:00 +22°C° 0 mm 5 m/s 753 mmHg 27%
    04:00 +21°C° 0 mm 5 m/s 753 mmHg 28%
    05:00 +21°C° 0 mm 5 m/s 753 mmHg 29%
    06:00 +21°C° 0 mm 5 m/s 753 mmHg 28%
    07:00 +21°C° 0 mm 5 m/s 754 mmHg 28%
    08:00 +21°C° 0 mm 5 m/s 754 mmHg 27%
    09:00 +23°C° 0 mm 5 m/s 754 mmHg 24%
    10:00 +25°C° 0 mm 5 m/s 754 mmHg 21%
    11:00 +27°C° 0 mm 5 m/s 754 mmHg 19%
    12:00 +27°C° 0 mm 6 m/s 754 mmHg 21%
    13:00 +28°C° 0 mm 6 m/s 754 mmHg 24%
    14:00 +28°C° 0 mm 7 m/s 754 mmHg 26%
    15:00 +27°C° 0 mm 6 m/s 754 mmHg 26%
    16:00 +26°C° 0 mm 6 m/s 754 mmHg 26%
    17:00 +23°C° 0 mm 5 m/s 754 mmHg 26%
    18:00 +22°C° 0 mm 5 m/s 755 mmHg 25%
    19:00 +21°C° 0 mm 5 m/s 755 mmHg 25%
    20:00 +20°C° 0 mm 4 m/s 756 mmHg 24%
    21:00 +19°C° 0 mm 4 m/s 756 mmHg 25%
    22:00 +19°C° 0 mm 4 m/s 756 mmHg 26%
    23:00 +18°C° 0 mm 4 m/s 756 mmHg 27%

    27 Novembre, Mercredi

    Heure Température Précipitation Vent Pression Humidité
    00:00 +17°C° 0 mm 4 m/s 756 mmHg 28%
    01:00 +17°C° 0 mm 4 m/s 756 mmHg 30%
    02:00 +15°C° 0 mm 4 m/s 756 mmHg 31%
    03:00 +15°C° 0 mm 4 m/s 756 mmHg 32%
    04:00 +15°C° 0 mm 4 m/s 756 mmHg 32%
    05:00 +14°C° 0 mm 4 m/s 756 mmHg 33%
    06:00 +14°C° 0 mm 5 m/s 756 mmHg 32%
    07:00 +15°C° 0 mm 5 m/s 757 mmHg 31%
    08:00 +15°C° 0 mm 6 m/s 757 mmHg 31%
    09:00 +17°C° 0 mm 6 m/s 757 mmHg 32%
    10:00 +20°C° 0 mm 6 m/s 757 mmHg 32%
    11:00 +21°C° 0 mm 6 m/s 757 mmHg 33%
    12:00 +22°C° 0 mm 6 m/s 756 mmHg 34%
    13:00 +23°C° 0 mm 6 m/s 756 mmHg 35%
    14:00 +24°C° 0 mm 6 m/s 755 mmHg 36%
    15:00 +23°C° 0 mm 6 m/s 755 mmHg 38%
    16:00 +22°C° 0 mm 5 m/s 756 mmHg 40%
    17:00 +21°C° 0 mm 4 m/s 756 mmHg 42%
    18:00 +20°C° 0 mm 4 m/s 756 mmHg 45%
    19:00 +20°C° 0 mm 3 m/s 757 mmHg 48%
    20:00 +19°C° 0 mm 3 m/s 757 mmHg 52%
    21:00 +19°C° 0 mm 3 m/s 757 mmHg 54%
    22:00 +18°C° 0 mm 3 m/s 757 mmHg 57%
    23:00 +18°C° 0 mm 3 m/s 758 mmHg 60%
    Voir plus